[[{"header":{"parameterUnit":"m.s-1","parameterCategory":1,"la1":30.2991,"la2":30.254,"lo1":-89.0895,"lo2":-89.0444,"dy":0.0017,"dx":0.0017,"nx":28,"ny":28,"refTime":"2025-06-15T09:00:00:Z","depth":0,"parameterNumber":2,"parameterNumberName":"U-component_of_WINDS"},"data":[0,0,0,0,0,0,0,0,0,0,0,0,0,0,0,0,0,0,0,0,0,0,0,0,0,0,0,0,0,0,0,0,0,0,0,0,0,0,0,0,0,0,0,0,0,0,0,0,0,0,0,0,0,0,0,0,0,0,-0.4518,-0.4517,0,-0.4413,-0.4412,-0.441,-0.4355,-0.4355,-0.4355,-0.4355,-0.4252,-0.425,-0.4247,0,0,0,0,0,0,0,0,0,0,0,0,0,-0.4678,-0.4675,-0.4518,-0.4517,-0.4515,-0.4413,-0.4411,-0.441,-0.4356,-0.4355,-0.4355,-0.4355,-0.4253,-0.425,-0.4247,0,0,0,0,0,0,0,0,0,0,0,0,0,-0.4594,-0.4674,-0.4518,-0.4476,-0.4471,-0.4413,-0.4411,-0.441,-0.4356,-0.4355,-0.4355,-0.4355,-0.4254,-0.425,-0.4246,-0.4224,0,0,-0.4234,-0.4232,0,0,0,0,0,0,0,0,-0.4599,-0.4588,-0.4483,-0.4479,-0.4473,-0.4397,-0.443,-0.4348,-0.4356,-0.4399,-0.4355,-0.4355,-0.4301,-0.4293,-0.4274,-0.4219,-0.4215,-0.4234,-0.4231,-0.423,-0.4228,0,0,0,0,0,0,0,-0.4605,-0.4593,-0.4476,-0.4482,-0.4476,-0.4464,-0.4452,-0.4414,-0.4352,-0.4396,-0.4391,-0.4379,-0.4298,-0.4278,-0.4271,-0.4214,-0.4234,-0.423,-0.4228,-0.4226,-0.4138,-0.4138,0,0,0,0,0,0,-0.4617,-0.4598,-0.448,-0.4473,-0.4537,-0.4461,-0.4448,-0.4422,-0.4353,-0.4342,-0.438,-0.4377,-0.4284,-0.4276,-0.4267,-0.4237,-0.423,-0.4226,-0.4224,-0.4138,-0.4138,-0.4138,0,0,0,0,0,0,-0.462,-0.4607,-0.4484,-0.4534,-0.4518,-0.4458,-0.443,-0.442,-0.4399,-0.434,-0.433,-0.437,-0.4284,-0.4273,-0.4235,-0.4233,-0.4224,-0.422,-0.4138,-0.4138,-0.4138,-0.4177,0,0,0,0,0,0,-0.4625,-0.4608,-0.4598,-0.4534,-0.4515,-0.4452,-0.4429,-0.4418,-0.4392,-0.4388,-0.4328,-0.4318,-0.4283,-0.4242,-0.4231,-0.4227,-0.4217,-0.4138,-0.4138,-0.4138,-0.4176,-0.4178,-0.4181,0,0,0,0,0,-0.4631,-0.4614,-0.4597,-0.4584,-0.4501,-0.4452,-0.4442,-0.44,-0.4392,-0.4382,-0.4344,-0.432,-0.4235,-0.4238,-0.4226,-0.4221,-0.4138,-0.4138,-0.4138,-0.4174,-0.4178,-0.4181,0,0,0,0,0,0,-0.4679,-0.4604,-0.4586,-0.4547,-0.4506,-0.4443,-0.4429,-0.4405,-0.4366,-0.4364,-0.4316,-0.4303,-0.4271,-0.4242,-0.4247,-0.4197,-0.4184,-0.4182,-0.4216,-0.4219,-0.4221,-0.4228,-0.4214,0,0,0,0,0,-0.4685,-0.4651,-0.4588,-0.456,-0.454,-0.4488,-0.4466,-0.4437,-0.4394,-0.4377,-0.4337,-0.4297,-0.4261,-0.4239,-0.4203,-0.4172,-0.4159,-0.4163,-0.4165,-0.4168,-0.4166,-0.4149,-0.415,-0.4139,-0.4139,-0.4139,0,0,-0.4698,-0.4653,-0.4634,-0.4569,-0.4533,-0.45,-0.4474,-0.444,-0.4415,-0.4372,-0.4334,-0.4304,-0.4256,-0.4223,-0.4206,-0.4198,-0.4167,-0.4168,-0.417,-0.4167,-0.4149,-0.415,-0.4151,-0.4139,-0.4139,-0.4139,0,0,-0.4703,-0.4665,-0.4637,-0.4603,-0.455,-0.4516,-0.451,-0.445,-0.4428,-0.4389,-0.4356,-0.4328,-0.4267,-0.4235,-0.4211,-0.4206,-0.4183,-0.4196,-0.4209,-0.4193,-0.4194,-0.4194,-0.4193,-0.4193,-0.4195,-0.4195,-0.4195,0,-0.4725,-0.4671,-0.4627,-0.4594,-0.4567,-0.4526,-0.4499,-0.4469,-0.4408,-0.4391,-0.4383,-0.4307,-0.4272,-0.423,-0.4229,-0.4211,-0.4204,-0.4202,-0.4197,-0.4197,-0.4197,-0.4195,-0.4194,-0.4197,-0.4197,-0.4197,-0.4196,0,-0.4701,-0.4665,-0.465,-0.459,-0.4562,-0.4533,-0.4486,-0.4463,-0.4438,-0.4406,-0.4368,-0.4325,-0.428,-0.4268,-0.4244,-0.4224,-0.4221,-0.4206,-0.4192,-0.42,-0.4198,-0.4197,-0.42,-0.4199,-0.4198,-0.4198,0,0,-0.4732,-0.4649,-0.4644,-0.4617,-0.4556,-0.4529,-0.4499,-0.4453,-0.4435,-0.4396,-0.437,-0.4321,-0.4307,-0.4279,-0.4252,-0.4238,-0.4238,-0.4224,-0.4223,-0.4228,-0.4214,-0.4225,-0.4225,-0.4223,-0.4222,-0.4222,-0.4218,0,-0.4728,-0.4669,-0.4629,-0.4587,-0.4554,-0.4516,-0.449,-0.4452,-0.4421,-0.4391,-0.4358,-0.4324,-0.4308,-0.4291,-0.4276,-0.4241,-0.4234,-0.4241,-0.42,-0.4199,-0.4211,-0.4223,-0.4234,-0.4232,-0.4217,-0.4216,-0.4216,0,-0.4714,-0.4674,-0.4628,-0.4572,-0.4557,-0.4534,-0.449,-0.4461,-0.4418,-0.4397,-0.4368,-0.4339,-0.4309,-0.4299,-0.4257,-0.4262,-0.4244,-0.4225,-0.4224,-0.4217,-0.4207,-0.4216,-0.423,-0.4229,-0.4214,-0.4214,-0.4215,0,-0.474,-0.4675,-0.4639,-0.4618,-0.4552,-0.4537,-0.451,-0.4466,-0.4442,-0.4405,-0.4389,-0.4349,-0.4328,-0.4299,-0.4262,-0.4258,-0.4224,-0.4211,-0.4206,-0.4207,-0.4199,-0.42,-0.4209,-0.4189,-0.4189,-0.4189,-0.4189,0,-0.4739,-0.4713,-0.465,-0.4628,-0.4598,-0.4554,-0.4527,-0.4496,-0.4458,-0.4432,-0.4398,-0.4374,-0.4326,-0.4297,-0.4269,-0.4239,-0.4229,-0.4213,-0.4205,-0.4215,-0.4217,-0.4201,-0.42,-0.4189,-0.4189,-0.4189,-0.4189,0,-0.4762,-0.472,-0.4678,-0.4619,-0.4604,-0.4585,-0.4536,-0.4514,-0.4483,-0.4449,-0.4439,-0.4391,-0.4355,-0.4315,-0.4267,-0.4248,-0.422,-0.4209,-0.4233,-0.4229,-0.4226,-0.4227,-0.4225,-0.4222,-0.4205,-0.4206,-0.4206,0,-0.4764,-0.4742,-0.4681,-0.466,-0.4632,-0.4599,-0.4574,-0.4531,-0.4507,-0.4457,-0.4442,-0.4403,-0.437,-0.4315,-0.4277,-0.4241,-0.4229,-0.4231,-0.4223,-0.4234,-0.4228,-0.4229,-0.4228,-0.4232,-0.4233,-0.4233,-0.4233,0,-0.4771,-0.4751,-0.4715,-0.4672,-0.4642,-0.4607,-0.4571,-0.4556,-0.4507,-0.4482,-0.4444,-0.4418,-0.4368,-0.4331,-0.429,-0.4264,-0.4241,-0.4236,-0.4233,-0.4242,-0.4257,-0.4249,-0.4238,-0.4236,-0.4236,-0.4236,-0.4235,-0.4235,-0.4783,-0.4762,-0.4716,-0.4677,-0.4645,-0.4612,-0.4589,-0.4555,-0.4522,-0.4476,-0.4455,-0.4417,-0.4377,-0.4319,-0.4295,-0.4266,-0.4259,-0.4255,-0.4253,-0.4253,-0.4255,-0.4263,-0.4259,-0.4259,-0.4259,-0.4259,-0.4259,0,-0.4788,-0.4756,-0.4721,-0.467,-0.4641,-0.4621,-0.458,-0.4557,-0.4524,-0.4488,-0.4455,-0.4413,-0.4377,-0.4337,-0.4299,-0.4285,-0.4273,-0.4276,-0.4276,-0.4271,-0.4264,-0.427,-0.4286,-0.4286,-0.4286,-0.4286,-0.4286,-0.4286,-0.4786,-0.475,-0.4725,-0.4674,-0.4644,-0.4605,-0.4583,-0.4554,-0.4524,-0.4478,-0.4447,-0.4421,-0.4384,-0.4343,-0.431,-0.43,-0.4287,-0.4293,-0.428,-0.4274,-0.4271,-0.4269,-0.4274,-0.4291,-0.4291,-0.4289,-0.4289,-0.4289]},{"header":{"parameterUnit":"m.s-1","parameterCategory":1,"la1":30.2991,"la2":30.254,"lo1":-89.0895,"lo2":-89.0444,"dy":0.0017,"dx":0.0017,"nx":28,"ny":28,"refTime":"2025-06-15T09:00:00:Z","depth":0,"parameterNumber":3,"parameterNumberName":"V-component_of_WINDS"},"data":[0,0,0,0,0,0,0,0,0,0,0,0,0,0,0,0,0,0,0,0,0,0,0,0,0,0,0,0,0,0,0,0,0,0,0,0,0,0,0,0,0,0,0,0,0,0,0,0,0,0,0,0,0,0,0,0,0,0,5.4366,5.4366,0,5.4361,5.4361,5.4361,5.4333,5.4333,5.4332,5.4331,5.4325,5.4326,5.4326,0,0,0,0,0,0,0,0,0,0,0,0,0,5.4353,5.4353,5.4366,5.4366,5.4366,5.4361,5.4361,5.4361,5.4333,5.4333,5.4332,5.4331,5.4325,5.4326,5.4326,0,0,0,0,0,0,0,0,0,0,0,0,0,5.4354,5.4353,5.4366,5.4352,5.4351,5.4361,5.4361,5.436,5.4334,5.4333,5.4332,5.4331,5.4325,5.4326,5.4326,5.4349,0,0,5.4328,5.4328,0,0,0,0,0,0,0,0,5.4354,5.4355,5.4354,5.4353,5.4352,5.4347,5.4353,5.4357,5.4334,5.434,5.4331,5.433,5.4333,5.4333,5.4334,5.4349,5.4349,5.4328,5.4329,5.4329,5.4329,0,0,0,0,0,0,0,5.4354,5.4355,5.4364,5.4354,5.4353,5.4346,5.4345,5.4354,5.4342,5.4339,5.4337,5.4337,5.4332,5.4333,5.4334,5.4349,5.4328,5.4329,5.4329,5.4329,5.4381,5.4382,0,0,0,0,0,0,5.4356,5.4355,5.4364,5.4364,5.435,5.4347,5.4346,5.4349,5.4342,5.434,5.4338,5.4336,5.4333,5.4333,5.4333,5.4359,5.4329,5.4329,5.433,5.438,5.4381,5.4382,0,0,0,0,0,0,5.4356,5.4357,5.4364,5.4359,5.4359,5.4348,5.4352,5.435,5.4351,5.4341,5.4338,5.4342,5.4332,5.4332,5.4345,5.4358,5.433,5.433,5.4379,5.438,5.4382,5.441,0,0,0,0,0,0,5.4355,5.4357,5.4366,5.4359,5.436,5.4377,5.4353,5.435,5.4352,5.4349,5.4343,5.4342,5.4331,5.4344,5.4346,5.4358,5.4331,5.4377,5.4379,5.4381,5.4408,5.4413,5.4416,0,0,0,0,0,5.4355,5.4375,5.4367,5.4368,5.4371,5.4378,5.4378,5.4366,5.4353,5.4362,5.4355,5.4342,5.4357,5.4346,5.4347,5.436,5.4377,5.4379,5.4381,5.4406,5.4412,5.4416,0,0,0,0,0,0,5.4383,5.4374,5.4365,5.4383,5.4381,5.4373,5.4383,5.4372,5.4374,5.4371,5.4356,5.4355,5.437,5.4367,5.4355,5.4382,5.4364,5.4367,5.4383,5.4388,5.4392,5.4392,5.4331,0,0,0,0,0,5.4392,5.4399,5.439,5.4406,5.4406,5.4395,5.4398,5.4388,5.4386,5.4385,5.438,5.4378,5.4382,5.4385,5.4389,5.4408,5.4405,5.4418,5.4422,5.4425,5.4427,5.4435,5.444,5.4389,5.4389,5.4389,0,0,5.4409,5.4405,5.441,5.4412,5.441,5.4416,5.4395,5.4403,5.4408,5.4387,5.4398,5.4394,5.4391,5.4407,5.4413,5.4404,5.4441,5.4428,5.4431,5.4431,5.4438,5.4443,5.4447,5.4391,5.4391,5.439,0,0,5.4444,5.4442,5.4454,5.4453,5.4449,5.4442,5.4445,5.4439,5.4435,5.4446,5.443,5.4435,5.4443,5.4441,5.4441,5.4475,5.4462,5.4476,5.4497,5.4506,5.451,5.4513,5.4523,5.4528,5.4479,5.4479,5.4479,0,5.4465,5.4475,5.4462,5.4471,5.4472,5.4454,5.4466,5.4465,5.4463,5.4464,5.4454,5.4463,5.446,5.4474,5.4482,5.4483,5.4485,5.4476,5.451,5.4514,5.4517,5.4526,5.453,5.448,5.448,5.448,5.448,0,5.4501,5.4508,5.4519,5.4517,5.4519,5.453,5.4519,5.4522,5.4513,5.4506,5.4517,5.4513,5.4514,5.4518,5.4509,5.453,5.4525,5.4513,5.4495,5.4523,5.4532,5.4536,5.4483,5.4482,5.4482,5.4481,0,0,5.4552,5.4543,5.4547,5.4546,5.4541,5.4546,5.4556,5.4557,5.456,5.4559,5.4566,5.4573,5.4562,5.4562,5.4553,5.456,5.4585,5.4547,5.4547,5.4553,5.4607,5.4615,5.4619,5.4577,5.4578,5.4578,5.4607,0,5.4584,5.46,5.4588,5.4606,5.4611,5.4594,5.4602,5.46,5.4594,5.4597,5.4591,5.4595,5.4581,5.4581,5.4588,5.4581,5.4595,5.4579,5.4582,5.4583,5.4582,5.4624,5.4632,5.4659,5.461,5.4611,5.4611,0,5.4623,5.4623,5.4641,5.4634,5.4636,5.4644,5.4643,5.4647,5.4644,5.4639,5.4639,5.4628,5.4636,5.462,5.463,5.4619,5.462,5.4617,5.4617,5.4616,5.4598,5.4622,5.4668,5.4671,5.4617,5.4616,5.4616,0,5.4656,5.4662,5.4673,5.4672,5.4665,5.467,5.4667,5.4663,5.4664,5.4664,5.4665,5.4666,5.4666,5.4667,5.4656,5.4645,5.4668,5.465,5.4663,5.4663,5.4667,5.4667,5.4712,5.467,5.467,5.467,5.467,0,5.4692,5.4703,5.4688,5.4694,5.4706,5.4693,5.4705,5.47,5.4697,5.4702,5.4687,5.4692,5.4678,5.4681,5.4673,5.4682,5.4683,5.4678,5.4676,5.4679,5.4679,5.4678,5.4675,5.4671,5.4671,5.4671,5.4671,0,5.4731,5.4721,5.4732,5.4723,5.4722,5.4731,5.4723,5.4729,5.4722,5.4728,5.4729,5.4719,5.4722,5.4711,5.4713,5.4707,5.472,5.4715,5.4721,5.4719,5.4731,5.473,5.4776,5.478,5.4738,5.4738,5.4739,0,5.4753,5.4761,5.4754,5.4756,5.4754,5.4758,5.4759,5.4746,5.4748,5.4744,5.475,5.4752,5.4753,5.4758,5.475,5.4751,5.4745,5.4761,5.4745,5.4748,5.4744,5.4743,5.4743,5.4764,5.4765,5.4765,5.4766,0,5.4793,5.4788,5.479,5.479,5.4792,5.4792,5.479,5.4793,5.4779,5.4782,5.4785,5.4785,5.4787,5.4788,5.4787,5.4784,5.4772,5.4771,5.4774,5.4776,5.4778,5.4776,5.4728,5.477,5.4769,5.4769,5.4769,5.4769,5.4823,5.4829,5.4825,5.4827,5.4825,5.4824,5.4828,5.4822,5.4824,5.4824,5.4817,5.4821,5.4816,5.4814,5.4812,5.4814,5.4807,5.4811,5.4812,5.4813,5.4814,5.4779,5.4814,5.4814,5.4814,5.4814,5.4814,0,5.4862,5.4858,5.486,5.4858,5.486,5.485,5.4847,5.4849,5.4853,5.485,5.4851,5.4854,5.4856,5.4848,5.4848,5.4852,5.4846,5.4852,5.4851,5.485,5.4822,5.4818,5.4856,5.4856,5.4856,5.4856,5.4856,5.4856,5.4881,5.489,5.4884,5.4892,5.4888,5.4892,5.4891,5.489,5.4887,5.4891,5.4892,5.4887,5.4882,5.4881,5.4882,5.488,5.488,5.4887,5.4883,5.4856,5.4852,5.4848,5.4845,5.4888,5.4888,5.4911,5.4911,5.4911]}]]